Cairns, Australia

6:03 PM AEST on August 24, 2017 (GMT +1000)
Cairns International

Weather History for YBCS - October, 2012

Change the Weather History Date:

Tuesday, October 30, 2012

  Actual Average Record
Temperature  
Mean Temperature 80 °F -  
Max Temperature 88 °F 87 °F 88 °F (2012)
Min Temperature 71 °F 72 °F 66 °F (1996)
Cooling Degree Days 14    
Growing Degree Days 30 (Base 50)    
Moisture  
Dew Point 67 °F    
Average Humidity 66    
Maximum Humidity 83    
Minimum Humidity 35    
Precipitation  
Precipitation 0.00 in 0.13 in - ()
Sea Level Pressure  
Sea Level Pressure 29.91 in    
Wind  
Wind Speed 9 mph ()    
Max Wind Speed 16 mph    
Max Gust Speed -    
Visibility 7.2 miles    
Events      
Averages and records for this station are not official NWS values.
T = Trace of Precipitation, MM = Missing Value Source: Averaged Metar Reports

Daily Weather History Graph

Daily Weather History Graph

Search for Another Location

Airport or City:

Trip Planner

Search our weather history database for the weather conditions in past years. The results will help you decide how hot, cold, wet, or windy it might be!

Date:

Astronomy

Oct. 30, 2012 Rise Set
Actual Time 5:39 AM AEST 6:21 PM AEST
Civil Twilight 5:17 AM AEST 6:43 PM AEST
Nautical Twilight 4:51 AM AEST 7:10 PM AEST
Astronomical Twilight 4:24 AM AEST 7:36 PM AEST
Moon 6:43 PM AEST (10/30) 5:38 AM AEST (10/30)
Length of Visible Light 13h 26m
Length of Day
12h 41m
Full, 100% of the Moon is Illuminated
Oct 30
Full
Nov 7
Last Quarter
Nov 14
New
Nov 21
First Quarter
Nov 29
Full

Hourly Weather History & Observations

Time (AEST) Temp. Heat Index Dew Point Humidity Pressure Visibility Wind Dir Wind Speed Gust Speed Precip Events Conditions
12:00 AM 75 °F - 68 °F 72% 29.93 in - South 6.9 mph - -  
12:00 AM 75.2 °F - 68.0 °F 78% 29.92 in 6.2 mi South 6.9 mph - N/A   Scattered Clouds
12:30 AM 75.2 °F - 68.0 °F 78% 29.92 in 6.2 mi South 8.1 mph - N/A   Partly Cloudy
1:00 AM 75 °F - 67 °F 71% 29.92 in - South 6.9 mph - -  
1:00 AM 75.2 °F - 68.0 °F 78% 29.92 in 6.2 mi South 6.9 mph - N/A   Scattered Clouds
1:30 AM 75.2 °F - 68.0 °F 78% 29.89 in 6.2 mi SSE 10.4 mph - N/A   Light Drizzle
2:00 AM 73.4 °F - 68.0 °F 83% 29.89 in 6.2 mi South 8.1 mph - N/A   Partly Cloudy
2:30 AM 73.4 °F - 68.0 °F 83% 29.89 in 6.2 mi South 8.1 mph - N/A   Partly Cloudy
3:00 AM 74 °F - 67 °F 74% 29.88 in - South 5.8 mph - -  
3:00 AM 73.4 °F - 68.0 °F 83% 29.86 in 6.2 mi South 5.8 mph - N/A   Partly Cloudy
3:30 AM 73.4 °F - 68.0 °F 83% 29.86 in 6.2 mi SSE 6.9 mph - N/A   Partly Cloudy
4:00 AM 72 °F - 67 °F 79% 29.88 in - SE 8.1 mph - -  
4:00 AM 73.4 °F - 66.2 °F 78% 29.86 in 6.2 mi SE 8.1 mph - N/A   Partly Cloudy
4:30 AM 75.2 °F - 66.2 °F 73% 29.86 in 6.2 mi South 8.1 mph - N/A   Partly Cloudy
5:00 AM 73.4 °F - 66.2 °F 78% 29.86 in 6.2 mi SSE 9.2 mph - N/A   Partly Cloudy
5:30 AM 73.4 °F - 66.2 °F 78% 29.89 in 6.2 mi South 8.1 mph - N/A   Partly Cloudy
6:00 AM 72 °F - 67 °F 79% 29.90 in 19 mi SE 10.4 mph - -   Partly Cloudy
6:00 AM 71.6 °F - 66.2 °F 83% 29.89 in 6.2 mi SE 10.4 mph - N/A   Partly Cloudy
6:30 AM 75.2 °F - 66.2 °F 73% 29.89 in 6.2 mi SSE 6.9 mph - N/A   Partly Cloudy
7:00 AM 76 °F - 66 °F 64% 29.92 in - SSE 8.1 mph - -  
7:00 AM 77.0 °F - 66.2 °F 69% 29.92 in 6.2 mi SSE 8.1 mph - N/A   Partly Cloudy
7:30 AM 78.8 °F - 66.2 °F 65% 29.92 in 6.2 mi SSE 9.2 mph - N/A   Partly Cloudy
8:00 AM 78.8 °F - 68.0 °F 69% 29.92 in 6.2 mi South 9.2 mph - N/A   Partly Cloudy
8:30 AM 80.6 °F 83.2 °F 68.0 °F 65% 29.95 in 6.2 mi South 9.2 mph - N/A   Partly Cloudy
9:00 AM 82 °F - 67 °F 50% 29.95 in 19 mi SSE 11.5 mph - -   Partly Cloudy
9:00 AM 82.4 °F 84.6 °F 66.2 °F 58% 29.95 in 6.2 mi SSE 11.5 mph - N/A   Partly Cloudy
9:30 AM 82.4 °F 84.6 °F 66.2 °F 58% 29.95 in 6.2 mi SE 12.7 mph - N/A   Scattered Clouds
10:00 AM 83 °F - 66 °F 47% 29.96 in - SE 10.4 mph - -  
10:00 AM 82.4 °F 84.6 °F 66.2 °F 58% 29.95 in 6.2 mi SE 10.4 mph - N/A   Mostly Cloudy
10:30 AM 82.4 °F 84.6 °F 66.2 °F 58% 29.95 in 6.2 mi ENE 6.9 mph - N/A   Mostly Cloudy
11:00 AM 84.2 °F 86.6 °F 66.2 °F 55% 29.92 in 6.2 mi ESE 12.7 mph - N/A   Mostly Cloudy
11:30 AM 84.2 °F 86.6 °F 66.2 °F 55% 29.92 in 6.2 mi East 12.7 mph - N/A   Mostly Cloudy
12:00 PM 84 °F - 65 °F 43% 29.92 in 19 mi ESE 12.7 mph - -   Partly Cloudy
12:00 PM 84.2 °F 85.6 °F 64.4 °F 51% 29.92 in 6.2 mi ESE 12.7 mph - N/A   Mostly Cloudy
12:30 PM 86.0 °F 88.2 °F 66.2 °F 51% 29.89 in 6.2 mi NE 11.5 mph - N/A   Scattered Clouds
1:00 PM 88 °F - 64 °F 35% 29.89 in - ESE 13.8 mph - -  
1:00 PM 87.8 °F 89.4 °F 64.4 °F 46% 29.89 in 6.2 mi ESE 13.8 mph - N/A   Partly Cloudy
1:30 PM 86.0 °F 87.3 °F 64.4 °F 48% 29.86 in 6.2 mi ESE 13.8 mph - N/A   Partly Cloudy
2:00 PM 86.0 °F 87.3 °F 64.4 °F 48% 29.86 in 6.2 mi ESE 16.1 mph - N/A   Partly Cloudy
2:30 PM 84.2 °F 85.6 °F 64.4 °F 51% 29.86 in 6.2 mi ESE 13.8 mph - N/A   Scattered Clouds
3:00 PM 85 °F - 64 °F 40% 29.87 in 19 mi ESE 11.5 mph - -   Partly Cloudy
3:00 PM 86.0 °F 87.3 °F 64.4 °F 48% 29.86 in 6.2 mi ESE 11.5 mph - N/A   Partly Cloudy
3:30 PM 84.2 °F 85.6 °F 64.4 °F 51% 29.86 in 6.2 mi ESE 13.8 mph - N/A   Partly Cloudy
4:00 PM 84 °F - 66 °F 45% 29.88 in - ESE 12.7 mph - -  
4:00 PM 84.2 °F 86.6 °F 66.2 °F 55% 29.86 in 6.2 mi ESE 12.7 mph - N/A   Partly Cloudy
4:30 PM 80.6 °F 82.7 °F 66.2 °F 61% 29.86 in 6.2 mi ESE 15.0 mph - N/A   Partly Cloudy
5:00 PM 80.6 °F 83.9 °F 69.8 °F 70% 29.86 in 6.2 mi ESE 13.8 mph - N/A   Scattered Clouds
5:30 PM 78.8 °F - 69.8 °F 74% 29.89 in 6.2 mi ESE 12.7 mph - N/A   Mostly Cloudy
6:00 PM 78.8 °F - 68.0 °F 69% 29.89 in 6.2 mi SSE 12.7 mph - N/A   Mostly Cloudy
6:30 PM 78.8 °F - 66.2 °F 65% 29.89 in 6.2 mi SE 13.8 mph - N/A   Mostly Cloudy
7:00 PM 78 °F - 68 °F 63% 29.93 in - SE 12.7 mph - -  
7:00 PM 78.8 °F - 68.0 °F 69% 29.92 in 6.2 mi SE 12.7 mph - N/A   Mostly Cloudy
7:30 PM 78.8 °F - 68.0 °F 69% 29.92 in 6.2 mi SSE 8.1 mph - N/A   Mostly Cloudy
8:00 PM 78.8 °F - 68.0 °F 69% 29.92 in 6.2 mi SE 9.2 mph - N/A   Mostly Cloudy
9:00 PM 76 °F - 69 °F 73% 29.96 in - South 8.1 mph - -   Overcast
9:00 PM 77.0 °F - 69.8 °F 78% 29.95 in 6.2 mi South 8.1 mph - N/A   Mostly Cloudy
9:30 PM 77.0 °F - 68.0 °F 74% 29.95 in 6.2 mi South 8.1 mph - N/A   Mostly Cloudy
10:00 PM 76 °F - 68 °F 71% 29.97 in - South 5.8 mph - -  
10:00 PM 77.0 °F - 68.0 °F 74% 29.95 in 6.2 mi South 5.8 mph - N/A   Mostly Cloudy
10:30 PM 77.0 °F - 68.0 °F 74% 29.95 in 6.2 mi South 5.8 mph - N/A   Mostly Cloudy
11:00 PM 77.0 °F - 68.0 °F 74% 29.95 in 6.2 mi SSE 6.9 mph - N/A   Scattered Clouds
11:30 PM 77.0 °F - 68.0 °F 74% 29.95 in 6.2 mi SSE 8.1 mph - N/A   Mostly Cloudy